sat.trackr.live / text

‹ back to catalog

STARLINK-33886

NORAD 63681 · 2025-085T

PAYLOAD ACTIVE UNKNOWN

§ Identity

Operator
Country
US
Launch date
2025-04-28
Launch site
AFETR
Launch vehicle
Mass (kg)
RCS (m²)

Purposes: comms

External: N2YO · Heavens-Above · Gunter

§ Orbital elements

Epoch: 2026-09-18T15:09:31.416768Z

Period
94.26 min
Inclination
43.0025°
Eccentricity
0.0001450
Mean motion
15.27616512 rev/d
Perigee alt
481.9 km
Apogee alt
483.9 km
Semi-major
6,861.1 km
B*
7.2232e-4
RAAN
20.7817°
Arg perigee
273.2663°
Mean anomaly
86.8023°
Rev number
7,838

§ Raw data

STARLINK-338861 63681U 25085T   26261.63161362  .00019690  00000+0  72232-3 0  99922 63681  43.0025  20.7817 0001450 273.2663  86.8023 15.27616512 78383

JSON: /api/v1/satellites/63681 · /tle

For live sub-satellite position, see the globe view (requires WebGL).

§ Visibility from observer

Set your observer location to see the next 7 days of passes ≥ 10°. The values pass through the URL so the page stays shareable.

No JS? Fill the form by hand. The geolocation button needs JavaScript.